Terminal Aerodrome Forecast
Issued by NWS

Home | Current Version | Previous Version | Text Only | Print | Product List | Glossary On
Versions: 1 2 3 4 5 6 7 8 9 10 11 12 13 14 15 16 17 18 19 20 21 22 23 24 25 26
000
FTUS43 KGRR 032200 AAD
TAFAZO
TAF AMD
KAZO 032201Z 0322/0418 27015G25KT 6SM -DZ BR OVC010
     FM040400 27012KT P6SM OVC025
     FM041300 29012KT P6SM OVC035=

USA.gov is the U.S. government's official web portal to all federal, state and local government web resources and services.